Date String (YYYY-MM-DD hh:mm:ss) UTC,Instrument flags,absolute air pressure of the measurement (hPa),sample flow rate (lpm),inlet stack bypass flow (lpm),air temperature of the measurement (°C),ambient temperature measured by the external sensor (°C),aerosol sample conditioner tube jacket temperature (°C),OPC LED temperature (°C),internal box temperature (°C),relative humidity of the measurement (%),span deviation,mass concentration of particles derived from Lorenz-Mie calculation of OPC scattering (μg/m³),mass concentration of particles derived from Lorenz-Mie calculation of OPC scattering (μg/m³),mass concentration of particles derived from Lorenz-Mie calculation of OPC scattering (μg/m³)
DateTimeUTC,F1_M11,P_M11,Q1_M11,Q2_M11,T1_M11,T2_M11,T3_M11,T4_M11,T5_M11,U1_M11,ZSPAN_M11,X2_M11,X0_M11,X1_M11
2023-06-09 14:00:00,SystemResetWarning,0830.3,5.00,000.00,030.4,028.8,000.0,038.9,031.8,24.2,0000.0,0003.93,0009.30,0003.16
2023-06-09 14:01:00,SystemResetWarning,0830.4,5.01,000.00,030.4,028.8,000.0,038.9,031.8,24.1,0000.0,0003.89,0009.16,0003.18
2023-06-09 14:02:00,SystemResetWarning,0830.4,5.01,000.00,030.4,028.8,000.0,038.9,031.8,24.8,0000.0,0003.93,0009.22,0003.19
2023-06-09 14:03:00,SystemResetWarning,0830.5,4.99,000.00,030.4,028.8,000.0,038.9,031.9,25.2,0000.0,0003.97,0009.20,0003.20
2023-06-09 14:04:00,SystemResetWarning,0830.4,5.00,000.00,030.4,028.8,000.0,038.9,031.9,25.7,0000.0,0003.99,0009.45,0003.20
2023-06-09 14:05:00,SystemResetWarning,0830.5,4.99,000.00,030.4,028.8,000.0,038.9,031.9,26.3,0000.0,0004.01,0009.51,0003.21
2023-06-09 14:06:00,SystemResetWarning,0830.5,5.00,000.00,030.4,028.8,000.0,038.9,031.9,26.4,0000.0,0004.05,0010.19,0003.24
2023-06-09 14:07:00,SystemResetWarning,0830.5,5.00,000.00,030.4,028.8,000.0,038.9,031.9,26.8,0000.0,0004.04,0010.39,0003.26
2023-06-09 14:08:00,SystemResetWarning,0830.5,4.99,000.00,030.4,028.9,000.0,038.9,031.9,26.8,0000.0,0004.02,0010.03,0003.29
2023-06-09 14:09:00,SystemResetWarning,0830.7,4.99,000.00,030.4,028.9,000.0,038.9,031.9,26.6,0000.0,0004.03,0009.89,0003.32
2023-06-09 14:10:00,SystemResetWarning,0830.5,5.00,000.00,030.4,028.9,000.0,039.0,031.9,26.6,0000.0,0004.02,0009.76,0003.34
2023-06-09 14:11:00,SystemResetWarning,0830.6,5.01,000.00,030.5,028.9,000.0,039.0,031.9,26.8,0000.0,0004.02,0010.20,0003.36
2023-06-09 14:12:00,SystemResetWarning,0830.6,5.01,000.00,030.5,028.9,000.0,039.0,031.9,27.2,0000.0,0004.06,0010.27,0003.39
2023-06-09 14:13:00,SystemResetWarning,0830.6,5.00,000.00,030.5,028.9,000.0,039.0,032.0,27.4,0000.0,0004.07,0010.27,0003.41
2023-06-09 14:14:00,SystemResetWarning,0830.6,5.00,000.00,030.5,028.9,000.0,039.0,032.0,27.1,0000.0,0004.03,0009.88,0003.42
2023-06-09 14:15:00,SystemResetWarning,0830.6,5.00,000.00,030.5,028.9,000.0,039.0,032.0,26.8,0000.0,0004.09,0009.55,0003.46
2023-06-09 14:16:00,SystemResetWarning,0830.6,5.00,000.00,030.5,028.9,000.0,039.0,032.0,26.4,0000.0,0004.07,0009.16,0003.47
2023-06-09 14:17:00,SystemResetWarning,0830.7,4.99,000.00,030.5,028.9,000.0,039.0,032.0,26.9,0000.0,0004.05,0008.59,0003.47
2023-06-09 14:18:00,SystemResetWarning,0830.6,4.99,000.00,030.5,029.0,000.0,039.0,032.0,27.0,0000.0,0004.05,0008.61,0003.47
2023-06-09 14:19:00,SystemResetWarning,0830.6,5.01,000.00,030.5,029.0,000.0,039.0,032.0,27.5,0000.0,0004.07,0008.41,0003.48
2023-06-09 14:20:00,SystemResetWarning,0830.7,5.01,000.00,030.6,028.5,000.0,039.0,032.1,26.8,0000.0,0004.08,0008.43,0003.47
2023-06-09 14:21:00,SystemResetWarning,0830.7,4.98,000.00,030.6,026.5,000.0,039.0,032.0,26.6,0000.0,0004.12,0008.55,0003.48
2023-06-09 14:22:00,SystemResetWarning,0830.6,5.01,000.00,030.5,025.4,000.0,038.9,031.9,26.7,0000.0,0004.16,0008.32,0003.48
2023-06-09 14:23:00,SystemResetWarning,0830.7,5.02,000.00,030.4,025.5,000.0,038.9,031.5,26.9,0000.0,0004.16,0008.18,0003.48
2023-06-09 14:24:00,SystemResetWarning,0830.6,4.99,000.00,030.3,025.9,000.0,038.9,031.3,27.2,0000.0,0004.13,0008.30,0003.49
2023-06-09 14:25:00,SystemResetWarning,0830.7,4.99,000.00,030.2,026.2,000.0,038.9,031.2,27.7,0000.0,0004.16,0009.06,0003.50
2023-06-09 14:26:00,SystemResetWarning,0830.6,5.00,000.00,030.2,026.6,000.0,038.8,031.2,27.8,0000.0,0004.12,0008.99,0003.50
2023-06-09 14:27:00,SystemResetWarning,0830.7,5.01,000.00,030.1,027.0,000.0,038.8,031.3,27.8,0000.0,0004.06,0008.84,0003.51
2023-06-09 14:28:00,SystemResetWarning,0830.7,4.99,000.00,030.1,027.2,000.0,038.8,031.3,28.2,0000.0,0004.10,0008.85,0003.52
2023-06-09 14:29:00,SystemResetWarning,0830.7,4.99,000.00,030.1,027.5,000.0,038.8,031.3,28.1,0000.0,0004.14,0008.75,0003.53
2023-06-09 14:30:00,SystemResetWarning,0830.7,5.00,000.00,030.1,027.7,000.0,038.8,031.3,28.3,0000.0,0004.18,0008.89,0003.54
2023-06-09 14:31:00,SystemResetWarning,0830.8,4.99,000.00,030.0,027.9,000.0,038.7,031.4,28.3,0000.0,0004.19,0008.95,0003.54
2023-06-09 14:32:00,SystemResetWarning,0830.9,5.01,000.00,030.0,028.0,000.0,038.7,031.4,28.5,0000.0,0004.17,0008.90,0003.53
2023-06-09 14:33:00,SystemResetWarning,0830.8,5.01,000.00,030.1,028.1,000.0,038.7,031.4,28.3,0000.0,0004.16,0008.87,0003.53
2023-06-09 14:34:00,SystemResetWarning,0830.8,5.01,000.00,030.1,028.2,000.0,038.7,031.4,27.8,0000.0,0004.16,0009.18,0003.54
2023-06-09 14:35:00,SystemResetWarning,0830.9,5.00,000.00,030.1,028.3,000.0,038.7,031.4,28.3,0000.0,0004.21,0009.26,0003.54
2023-06-09 14:36:00,SystemResetWarning,0830.9,5.00,000.00,030.1,028.3,000.0,038.7,031.4,28.7,0000.0,0004.21,0008.50,0003.54
2023-06-09 14:37:00,SystemResetWarning,0830.9,5.00,000.00,030.1,028.4,000.0,038.7,031.5,28.5,0000.0,0004.21,0008.54,0003.54
2023-06-09 14:38:00,SystemResetWarning,0831.0,5.01,000.00,030.1,028.4,000.0,038.7,031.5,28.9,0000.0,0004.25,0008.76,0003.54
2023-06-09 14:39:00,SystemResetWarning,0831.0,5.01,000.00,030.1,028.5,000.0,038.7,031.5,28.7,0000.0,0004.26,0008.71,0003.55
2023-06-09 14:40:00,SystemResetWarning,0830.9,5.01,000.00,030.1,028.5,000.0,038.7,031.6,29.0,0000.0,0004.22,0008.53,0003.55
2023-06-09 14:41:00,SystemResetWarning,0830.9,5.00,000.00,030.1,028.6,000.0,038.7,031.6,29.3,0000.0,0004.23,0008.67,0003.55
2023-06-09 14:42:00,SystemResetWarning,0830.9,5.00,000.00,030.1,028.6,000.0,038.7,031.6,28.0,0000.0,0004.24,0008.69,0003.56
2023-06-09 14:43:00,SystemResetWarning,0830.9,4.99,000.00,030.2,028.6,000.0,038.7,031.6,27.9,0000.0,0004.23,0008.68,0003.56
2023-06-09 14:44:00,SystemResetWarning,0830.9,5.00,000.00,030.2,028.6,000.0,038.7,031.7,28.1,0000.0,0004.23,0008.69,0003.57
2023-06-09 14:45:00,SystemResetWarning,0831.0,5.00,000.00,030.2,028.7,000.0,038.7,031.7,28.1,0000.0,0004.24,0008.70,0003.57
2023-06-09 14:46:00,SystemResetWarning,0831.0,5.00,000.00,030.2,028.7,000.0,038.7,031.7,27.7,0000.0,0004.21,0008.57,0003.55
2023-06-09 14:47:00,SystemResetWarning,0831.1,5.00,000.00,030.2,028.7,000.0,038.7,031.7,27.8,0000.0,0004.21,0008.54,0003.55
2023-06-09 14:48:00,SystemResetWarning,0831.0,5.00,000.00,030.3,027.4,000.0,038.7,031.8,27.9,0000.0,0004.19,0008.41,0003.54
2023-06-09 14:49:00,SystemResetWarning,0831.1,5.01,000.00,030.2,026.0,000.0,038.7,031.7,28.1,0000.0,0004.18,0008.32,0003.55
2023-06-09 14:50:00,SystemResetWarning,0831.0,5.00,000.00,030.2,026.0,000.0,038.6,031.6,28.2,0000.0,0004.16,0008.25,0003.55
2023-06-09 14:51:00,SystemResetWarning,0831.0,5.01,000.00,030.1,026.2,000.0,038.6,031.3,28.0,0000.0,0004.18,0008.51,0003.56
2023-06-09 14:52:00,SystemResetWarning,0831.1,5.00,000.00,030.0,026.6,000.0,038.6,031.2,28.1,0000.0,0004.17,0008.49,0003.56
2023-06-09 14:53:00,SystemResetWarning,0831.1,5.00,000.00,030.0,026.9,000.0,038.6,031.2,27.9,0000.0,0004.16,0008.77,0003.56
2023-06-09 14:54:00,SystemResetWarning,0831.0,5.01,000.00,030.0,027.2,000.0,038.6,031.2,28.1,0000.0,0004.14,0008.86,0003.56
2023-06-09 14:55:00,SystemResetWarning,0831.0,4.99,000.00,030.0,027.4,000.0,038.6,031.3,28.1,0000.0,0004.14,0009.37,0003.56
2023-06-09 14:56:00,SystemResetWarning,0831.0,5.00,000.00,030.0,027.6,000.0,038.6,031.3,28.3,0000.0,0004.12,0009.71,0003.55
2023-06-09 14:57:00,SystemResetWarning,0831.0,5.00,000.00,030.0,027.8,000.0,038.6,031.3,28.7,0000.0,0004.16,0009.64,0003.56
2023-06-09 14:58:00,SystemResetWarning,0831.0,4.99,000.00,030.0,028.0,000.0,038.6,031.3,28.0,0000.0,0004.15,0009.72,0003.56
2023-06-09 14:59:00,SystemResetWarning,0831.1,4.99,000.00,030.0,028.1,000.0,038.6,031.4,27.0,0000.0,0004.15,0009.77,0003.56
